Flag for Greece Weather past 2 weeks in Alexandroupoli, Greece

48 °F

Passing clouds.

Feels Like: 48 °F
Forecast: 43 / 47 °F
Wind: No wind

Location: Alexandroupoli Airport

Current Time: Nov 28, 2015 at 11:03:25 PM

Latest Report: Nov 28, 2015 at 10:20 PM

Visibility: N/A

Pressure: 29.83 "Hg

Humidity: 94%

Dew point: 46 °F

Location of AlexandroupoliLocation

Historic Weather in Alexandroupoli — Graph


Alexandroupoli temperature yesterday

Maximum temperature yesterday: 61 °F (at 12:50 PM)
Minimum temperature yesterday: 52 °F (at 7:20 AM)
Average temperature yesterday: 58 °F

Past Weeks' High & Low Weather Summary

High68 °F (Nov 22, 10:50 AM)100% (Nov 14, 5:50 AM)30.33 "Hg (Nov 14, 5:50 AM)
Low41 °F (Nov 15, 10:50 PM)37% (Nov 15, 1:50 PM)29.47 "Hg (Nov 26, 5:50 AM)
Average59 °F81%29.92 "Hg
* Reported Nov 13 9:20 PM — Nov 28 9:50 PM, Alexandroupoli, Weather by CustomWeather, © 2015

Note: Actual official high and low records may vary slightly from our data, if they occured in-between our weather recording intervals... More about our weather records


Alexandroupoli weather history for previous 24 hours

Time TempWeatherWind HumidityBarometerVisibility
9:50 PM
Sat, Nov 28
50 °FPassing clouds.No wind94%29.80 "HgN/A
9:20 PM50 °FPassing clouds.No wind94%29.77 "HgN/A
8:50 PM50 °FPassing clouds.No wind94%29.77 "HgN/A
8:20 PM52 °FPassing clouds.No wind88%29.74 "HgN/A
7:50 PM52 °FPassing clouds.No wind88%29.74 "HgN/A
7:20 PM50 °FPassing clouds.3 mph88%29.74 "HgN/A
6:50 PM52 °FPassing clouds.3 mph88%29.74 "HgN/A
6:20 PM54 °FPassing clouds.No wind94%29.71 "HgN/A
5:50 PM54 °FPassing clouds.No wind94%29.71 "HgN/A
5:20 PM55 °FPassing clouds.No wind88%29.71 "HgN/A
4:50 PM55 °FPassing clouds.No wind88%29.71 "HgN/A
4:20 PM55 °FScattered clouds.3 mph88%29.71 "HgN/A
3:50 PM57 °FScattered clouds.3 mph82%29.71 "HgN/A
3:20 PM55 °FScattered clouds.3 mph88%29.68 "HgN/A
2:50 PM55 °FScattered clouds.3 mph88%29.68 "HgN/A
2:20 PM54 °FLight rain. Scattered clouds.3 mph94%29.68 "HgN/A
1:50 PM54 °FThunderstorms. Scattered clouds.5 mph94%29.74 "Hg5 mi
1:20 PM57 °FLight rain. Partly sunny.6 mph94%29.68 "Hg5 mi
12:50 PM57 °FLight rain. Partly sunny.6 mph94%29.68 "HgN/A
12:20 PM57 °FLight rain. Partly sunny.7 mph82%29.71 "HgN/A
11:50 AM57 °FPartly sunny.7 mph82%29.74 "HgN/A
11:20 AM57 °FPartly sunny.6 mph82%29.71 "HgN/A
10:50 AM57 °FPartly sunny.6 mph82%29.71 "HgN/A
10:20 AM57 °FMore clouds than sun.5 mph82%29.68 "HgN/A
9:50 AM57 °FMore clouds than sun.No wind82%29.68 "HgN/A
9:20 AM55 °FMore clouds than sun.9 mph88%29.68 "HgN/A
8:50 AM55 °FLight rain. More clouds than sun.12 mph100%29.68 "HgN/A
8:20 AM55 °FLight rain. More clouds than sun.14 mph88%29.71 "HgN/A
7:50 AM55 °FLight rain. More clouds than sun.14 mph88%29.71 "HgN/A
7:20 AM57 °FMore clouds than sun.14 mph82%29.68 "HgN/A
6:50 AM57 °FLight rain. Mostly cloudy.16 mph82%29.68 "HgN/A
6:20 AM57 °FThunderstorms. Mostly cloudy.16 mph88%29.68 "HgN/A
5:50 AM57 °FThunderstorms. Mostly cloudy.17 mph88%29.68 "HgN/A
Weather by CustomWeather, © 2015

See weather overviewHow to use our weather pages